Vertical_Velocity
-2 -2 -1 2 -0 0 2 -1 -2 -3 0 -0 -4 -1 -2 -1 0 -1 -1 0 0 -2 -2 -0 -1 -1 -0 -2 0 2 1 2 0 -0 -1 -2 -1 -1 -1 -1 -0 2 2 0 1 1 2 2 1
-1 1 3 1 -0 0 -0 -2 -1 -0 -2 -0 -1 -2 -1 -1 -2 0 1 -2 1 -3 -2 -2 -3 -2 -1 -1 -1 0 -1 -1 0 -0 1 0 -1 -1 -0 0 1 -0 -1 0 -1 -1 1 2 1
-1 -1 -0 0 -0 0 -0 1 -1 -3 -2 -1 0 1 -0 0 0 2 0 -1 1 -1 -3 -0 -0 -0 -0 -2 -1 -1 -2 -2 -1 -1 -0 -1 -1 -0 1 -0 0 -1 -0 -0 -0 0 -0 0 0
0 2 -1 -0 0 -1 -1 -0 -1 -1 -0 -0 -2 -2 -0 1 1 3 -0 -0 2 -1 -1 1 -1 -1 1 -1 -1 -2 1 0 -1 -1 -0 -0 1 2 2 1 1 2 0 -1 -0 -2 -1 -1 0
0 0 -2 -1 -0 -1 -1 -1 -1 -2 1 2 -1 -2 -0 0 -1 -1 -1 -1 0 1 1 1 -1 0 -3 -1 -1 0 1 0 -0 -1 1 -1 1 -1 -3 1 0 1 -0 0 0 -0 -1 -1 0
0 -0 -2 1 0 -0 -1 -2 -2 -2 -3 -4 -3 -2 -1 -1 -2 -2 0 -1 -0 -0 -1 -1 -1 -1 -1 -3 -3 1 -2 -1 -0 0 -0 1 1 1 -2 -1 -1 -1 -1 -0 -1 -1 0 1 1
-0 -0 -1 1 -0 -2 -2 -3 -1 1 -0 -1 1 0 1 1 -1 -1 -0 -0 -1 0 0 -0 -0 -1 -3 -3 -1 -2 0 -0 -1 -2 -0 -1 -1 -1 -0 0 0 -1 1 -0 0 -1 0 1 -1
2 0 1 -1 -1 -0 1 0 -1 -2 1 0 -0 -1 -0 -2 -1 -1 1 0 1 0 -0 0 0 -1 -1 -1 -1 -2 -1 -2 -0 -3 1 -2 -1 -0 -2 1 2 1 1 1 1 0 -0 -2 -2
-1 -0 2 1 -0 -1 -1 -3 -3 -2 -1 -4 -4 1 0 -1 0 -2 1 1 1 1 -2 -1 -1 -0 -1 -0 -2 -1 -2 0 -2 0 -0 -2 -3 -4 -3 -1 -1 -1 -1 -1 -2 -2 -2 -1 0
-0 -3 -0 1 0 -0 -0 1 -1 -1 -2 -1 0 -0 -2 -1 -1 -1 -0 -0 -1 1 0 -0 -1 -3 -1 -2 -0 -2 0 -0 -1 -3 -1 0 1 -1 -2 -3 -0 1 0 0 -2 -0 0 -1 -3
0 2 0 -1 -0 1 1 1 -0 -1 -3 -1 1 -0 0 0 -2 -1 -0 -2 -0 1 1 -0 -2 -0 -1 -1 -2 -1 -3 -0 -2 -1 -6 -0 -2 2 2 1 -2 0 -1 0 -2 -0 3 1 0
-1 -1 1 -0 1 1 1 1 1 -0 0 -1 -1 -0 -1 0 1 -2 -2 0 -0 0 -0 2 -0 -2 -1 -1 -1 -0 -0 -1 -2 -1 -1 -1 -4 -3 0 2 -1 1 -2 -1 0 1 1 2 1
-3 -1 1 2 3 1 1 1 -1 1 1 -1 -2 -3 -0 -3 -3 1 0 -1 -1 -0 0 1 -1 0 0 -2 1 0 3 -2 -2 -2 -2 -1 -2 -2 -3 -0 0 -0 -0 -2 0 -1 -0 -2 -1
1 -1 -3 -2 -1 2 1 4 2 2 -0 -1 -0 -1 -0 -2 -2 1 1 -1 0 0 1 -1 -2 1 2 2 -0 -3 -1 -0 -3 0 -2 -4 -3 -2 -4 -3 -1 -1 1 -1 -2 -1 -1 -1 -2
0 2 -4 -1 -2 3 0 4 -2 1 2 -2 -1 2 0 2 -1 -1 5 3 2 2 0 -2 -1 -2 -4 -3 -1 -1 -2 0 -1 -2 -0 -1 -3 -5 1 -1 -2 -2 -0 1 -2 -1 2 3 0
-1 1 -1 3 0 -1 1 7 4 3 0 0 2 3 4 5 7 2 2 1 1 1 -1 -1 -3 -2 1 -2 -3 -4 -1 -1 -2 -3 0 -3 -2 -2 -2 -3 -3 -1 -1 -2 -1 -1 1 2 -1
1 -1 3 0 -1 2 -0 8 4 2 3 0 3 0 -0 -3 1 -1 0 -2 -3 -2 0 1 -1 -1 -2 1 1 -2 -1 -1 -0 -2 -3 -2 -3 -3 -3 -1 -1 -0 -2 -1 -1 -1 -0 0 -1
-1 -0 4 7 -5 -4 1 6 -2 -0 -3 -3 -5 0 2 1 -4 -1 -0 -1 1 -1 -0 0 -1 -2 -2 -2 1 1 -1 -1 -1 -0 1 -1 -3 -3 -3 -1 -2 -3 -1 -3 -2 -1 1 1 -1
1 0 2 8 -8 -3 -5 3 1 3 -1 0 -6 3 2 4 2 -1 -2 -0 -3 -1 -2 1 0 -3 -1 0 -0 -2 -1 1 -1 -1 -1 2 0 -2 -2 -2 -0 -1 -2 -1 -2 -1 -1 -1 -3
-1 -1 7 7 1 -10 -0 6 4 2 2 -0 -7 -0 1 1 2 -1 0 1 -0 -2 0 3 1 -0 -3 -1 -4 1 -0 -1 -1 -2 -1 -1 0 2 -0 -3 -2 1 -4 -2 0 1 -1 -2 -2
-2 -3 -2 -5 -0 2 -2 3 6 8 6 4 1 3 1 3 -3 -1 -3 -2 13 1 -2 1 2 2 0 1 -0 -1 1 1 -2 -1 -2 -3 -2 -1 0 -2 -3 -1 0 -1 1 -1 -1 -0 -2
9 -11 -5 1 -4 -0 1 -10 9 8 6 4 4 6 4 5 0 6 -1 -0 -2 4 3 1 1 2 -1 -1 -3 -2 -0 2 1 0 0 -4 -3 -1 -1 -0 -4 -5 -2 0 -0 0 -1 -1 -1
-0 -1 -3 1 -3 -6 6 -15 7 4 7 7 1 -1 -3 2 5 3 2 6 11 23 -2 -1 -2 -2 1 1 -1 -2 -1 1 2 1 1 0 -0 -2 -2 1 -2 -1 -3 -4 -4 1 -0 -0 1
-3 0 -7 -5 0 -7 4 -12 22 1 4 5 5 5 5 1 -3 -0 0 0 5 6 -2 -7 3 2 -1 0 1 -1 1 1 2 3 1 2 3 -1 -2 -1 -2 -1 -2 0 1 -3 -5 -5 -4
2 -3 -7 -2 -6 -3 -1 -11 13 3 0 2 -0 5 1 2 1 0 1 -4 7 2 5 1 0 -1 -1 -1 2 -0 -2 -0 2 2 1 -0 -0 0 -0 -2 -3 1 1 -0 -4 -4 -1 3 2
2 -4 -6 -17 -8 -3 -2 -5 8 -0 4 3 3 -1 2 -3 5 7 6 -0 2 -1 14 4 3 -2 -2 -3 -0 2 -1 -1 1 1 1 2 3 2 -0 -0 0 -0 -0 -2 1 2 -0 -0 -1
1 -1 4 -14 1 -12 4 4 1 0 3 1 2 0 -0 -5 -7 5 5 2 0 12 2 -0 0 -1 1 -1 -1 1 1 -1 -1 0 2 0 0 1 0 1 -1 -1 -0 -1 1 2 1 0 2
-4 -6 -3 -3 -15 -14 5 -5 -1 3 1 -1 3 0 -4 -3 -8 -8 -5 1 1 11 16 2 1 1 -1 1 0 -2 1 -2 -1 1 -1 1 0 -0 -1 -1 -2 -0 3 4 2 1 3 2 2
-3 -2 -3 -9 -3 -21 -10 9 2 -0 -4 0 2 2 1 -1 -3 -1 3 -7 -7 2 10 3 -2 -2 1 1 -1 -1 -1 -0 -0 -1 1 0 -0 -3 -3 -1 3 5 4 1 -1 1 2 2 1
-0 1 2 -13 10 -5 -5 2 15 5 3 -4 3 -0 -1 -4 -2 3 -9 -10 -1 1 3 -4 -2 1 2 -1 2 1 1 1 3 -0 1 0 -1 -2 -0 -1 1 4 1 -1 1 2 3 -1 -0
Height
5919 5919 5919 5919 5921 5915 5912 5910 5905 5902 5900 5896 5891 5888 5885 5883 5883 5883 5878 5876 5874 5873 5871 5869 5867 5865 5864 5863 5862 5860 5859 5858 5858 5857 5857 5856 5856 5855 5856 5857 5858 5859 5860 5860 5860 5860 5860 5860 5859
5920 5919 5920 5920 5920 5915 5912 5908 5906 5902 5898 5894 5890 5887 5885 5883 5882 5881 5878 5876 5874 5873 5871 5869 5867 5865 5863 5862 5859 5858 5857 5857 5856 5855 5856 5855 5855 5855 5854 5855 5855 5855 5856 5857 5858 5857 5857 5857 5858
5921 5921 5921 5920 5919 5915 5912 5909 5906 5902 5898 5894 5890 5887 5885 5884 5882 5880 5878 5876 5875 5873 5871 5869 5866 5864 5862 5861 5859 5858 5857 5855 5854 5855 5854 5854 5854 5853 5853 5853 5853 5854 5854 5854 5853 5853 5853 5855 5855
5922 5922 5922 5920 5918 5915 5912 5909 5906 5902 5898 5894 5891 5887 5886 5884 5882 5880 5879 5876 5874 5872 5870 5869 5866 5864 5862 5860 5859 5858 5857 5855 5854 5854 5853 5852 5852 5851 5852 5852 5851 5851 5851 5850 5850 5851 5851 5852 5853
5923 5922 5920 5919 5918 5915 5912 5909 5906 5902 5898 5895 5891 5889 5886 5884 5881 5880 5878 5875 5873 5872 5870 5868 5866 5864 5862 5859 5858 5858 5856 5855 5853 5852 5851 5851 5850 5849 5849 5850 5850 5849 5848 5848 5848 5849 5849 5849 5849
5922 5921 5920 5919 5917 5914 5912 5908 5905 5902 5898 5895 5891 5888 5886 5883 5881 5879 5877 5875 5873 5871 5869 5867 5866 5864 5862 5859 5858 5856 5855 5854 5853 5852 5850 5849 5849 5848 5849 5849 5848 5848 5847 5847 5847 5847 5847 5847 5847
5921 5920 5918 5917 5915 5913 5911 5908 5905 5901 5898 5895 5891 5888 5886 5883 5880 5878 5875 5874 5871 5870 5868 5866 5865 5863 5861 5859 5857 5856 5854 5854 5852 5852 5851 5850 5850 5848 5848 5848 5847 5847 5846 5846 5846 5846 5846 5846 5845
5919 5918 5917 5915 5913 5912 5910 5907 5903 5899 5896 5894 5890 5887 5885 5882 5879 5877 5874 5872 5870 5868 5866 5865 5864 5862 5859 5858 5856 5855 5852 5852 5851 5850 5850 5850 5849 5848 5848 5847 5847 5846 5846 5846 5845 5845 5845 5844 5843
5916 5916 5915 5913 5911 5909 5907 5904 5901 5898 5894 5892 5889 5886 5883 5879 5877 5875 5872 5870 5869 5867 5865 5864 5862 5860 5859 5857 5856 5854 5851 5851 5851 5850 5849 5849 5849 5848 5847 5846 5846 5845 5846 5845 5845 5845 5844 5843 5842
5914 5913 5912 5910 5909 5907 5904 5902 5900 5896 5893 5890 5888 5884 5880 5877 5875 5872 5871 5869 5867 5865 5864 5862 5860 5859 5858 5856 5853 5852 5850 5849 5848 5848 5849 5849 5848 5847 5847 5846 5847 5847 5846 5845 5845 5844 5842 5840 5839
5912 5910 5908 5907 5905 5904 5902 5900 5897 5894 5890 5888 5885 5881 5878 5875 5873 5870 5869 5866 5865 5864 5862 5860 5859 5857 5855 5854 5852 5850 5848 5847 5846 5845 5846 5847 5847 5846 5846 5846 5845 5845 5845 5844 5843 5843 5841 5839 5837
5909 5907 5906 5905 5902 5901 5899 5897 5894 5891 5888 5885 5882 5879 5876 5873 5871 5868 5867 5865 5863 5862 5860 5858 5857 5855 5854 5853 5851 5849 5847 5846 5845 5844 5844 5845 5845 5845 5844 5845 5845 5844 5844 5843 5842 5842 5840 5838 5836
5903 5902 5902 5901 5900 5899 5897 5894 5892 5888 5885 5882 5880 5877 5873 5871 5868 5866 5865 5863 5861 5859 5857 5855 5855 5854 5852 5851 5850 5848 5846 5845 5845 5845 5843 5843 5844 5844 5844 5843 5843 5842 5842 5840 5839 5839 5838 5836 5833
5899 5897 5897 5897 5895 5895 5893 5891 5888 5885 5883 5880 5877 5874 5871 5868 5867 5865 5863 5861 5858 5856 5854 5853 5853 5851 5850 5849 5849 5848 5846 5844 5843 5844 5844 5843 5842 5842 5841 5842 5841 5840 5838 5838 5837 5837 5835 5833 5831
5894 5892 5891 5890 5890 5889 5888 5888 5884 5882 5879 5878 5875 5872 5869 5867 5865 5863 5859 5857 5855 5853 5851 5850 5849 5849 5848 5848 5847 5846 5845 5844 5842 5842 5842 5841 5840 5840 5839 5839 5839 5838 5836 5835 5834 5833 5831 5828 5826
5888 5887 5886 5883 5882 5881 5880 5883 5880 5877 5877 5875 5873 5870 5869 5866 5863 5859 5856 5854 5852 5850 5848 5848 5847 5847 5846 5846 5845 5843 5843 5841 5841 5840 5839 5840 5839 5839 5838 5838 5837 5835 5833 5832 5830 5828 5826 5824 5822
5881 5880 5881 5880 5878 5874 5871 5874 5872 5871 5871 5871 5869 5866 5864 5861 5859 5855 5852 5850 5849 5848 5846 5846 5845 5844 5843 5842 5842 5841 5840 5840 5838 5837 5836 5837 5837 5836 5836 5835 5835 5833 5831 5829 5827 5825 5823 5820 5817
5874 5874 5874 5873 5872 5867 5864 5864 5861 5862 5864 5866 5866 5863 5859 5855 5854 5851 5848 5847 5845 5844 5842 5842 5841 5840 5840 5839 5838 5838 5837 5836 5835 5834 5833 5833 5834 5834 5833 5830 5829 5829 5828 5826 5823 5821 5817 5815 5813
5866 5866 5865 5867 5864 5859 5858 5856 5856 5855 5856 5858 5860 5857 5854 5851 5848 5845 5843 5842 5841 5839 5837 5837 5836 5836 5836 5835 5834 5834 5833 5832 5831 5830 5830 5829 5829 5829 5829 5828 5826 5824 5824 5822 5820 5817 5814 5812 5808
5857 5856 5858 5856 5853 5851 5850 5848 5847 5846 5848 5850 5852 5851 5848 5845 5843 5840 5839 5838 5835 5834 5833 5832 5831 5831 5831 5831 5830 5829 5828 5827 5827 5826 5825 5826 5825 5824 5823 5823 5822 5820 5819 5818 5816 5813 5811 5807 5803
5851 5849 5848 5846 5845 5845 5843 5840 5842 5841 5842 5843 5845 5844 5843 5839 5837 5835 5833 5832 5830 5829 5827 5826 5826 5826 5826 5826 5826 5824 5823 5822 5821 5820 5820 5820 5819 5819 5818 5817 5817 5816 5815 5812 5810 5807 5805 5801 5797
5846 5842 5840 5839 5838 5836 5837 5832 5830 5834 5835 5836 5837 5835 5834 5832 5831 5828 5827 5825 5825 5822 5821 5821 5821 5821 5821 5822 5821 5819 5818 5817 5816 5815 5815 5815 5814 5813 5812 5811 5812 5811 5809 5807 5805 5802 5798 5795 5791
5837 5835 5834 5832 5830 5826 5831 5823 5820 5825 5828 5826 5825 5824 5824 5823 5823 5823 5822 5819 5816 5816 5813 5814 5816 5816 5817 5816 5816 5814 5812 5812 5811 5811 5811 5809 5809 5807 5806 5806 5805 5804 5802 5800 5798 5795 5791 5787 5783
5829 5828 5827 5825 5824 5820 5823 5817 5817 5818 5817 5816 5815 5815 5814 5813 5814 5815 5814 5813 5811 5810 5808 5810 5811 5811 5811 5811 5810 5808 5806 5806 5806 5806 5805 5804 5803 5802 5801 5800 5799 5797 5795 5792 5789 5787 5783 5779 5774
5823 5821 5819 5819 5816 5815 5814 5809 5813 5813 5809 5807 5807 5806 5805 5805 5806 5806 5806 5806 5803 5802 5804 5804 5805 5806 5806 5805 5804 5803 5801 5800 5800 5800 5800 5799 5797 5797 5795 5793 5792 5789 5787 5784 5781 5778 5775 5770 5764
5817 5816 5814 5809 5808 5806 5803 5802 5804 5807 5803 5800 5799 5798 5797 5797 5796 5796 5795 5796 5793 5794 5794 5798 5799 5799 5799 5799 5798 5797 5795 5794 5793 5794 5793 5792 5792 5790 5789 5787 5784 5782 5779 5776 5773 5770 5765 5760 5756
5811 5810 5807 5804 5803 5798 5796 5793 5791 5800 5797 5793 5791 5790 5788 5787 5786 5785 5785 5785 5785 5786 5788 5790 5792 5792 5793 5793 5792 5791 5789 5788 5787 5787 5786 5785 5785 5783 5781 5779 5777 5775 5773 5769 5765 5761 5757 5753 5747
5803 5801 5800 5799 5793 5790 5788 5784 5783 5792 5788 5785 5786 5781 5779 5778 5776 5776 5777 5776 5778 5779 5781 5783 5785 5786 5786 5786 5785 5784 5783 5782 5781 5780 5779 5778 5777 5777 5775 5773 5771 5769 5765 5761 5757 5753 5748 5743 5738
5795 5792 5791 5790 5788 5782 5778 5778 5778 5782 5783 5778 5778 5776 5772 5770 5768 5768 5770 5770 5772 5773 5774 5777 5779 5779 5779 5779 5778 5777 5776 5775 5774 5773 5772 5773 5772 5769 5767 5765 5762 5760 5757 5754 5748 5744 5739 5732 5729
5784 5784 5781 5779 5780 5776 5770 5770 5772 5777 5775 5772 5768 5767 5764 5763 5760 5761 5762 5763 5766 5767 5768 5769 5770 5771 5771 5771 5771 5770 5768 5767 5766 5767 5766 5764 5762 5761 5758 5756 5754 5753 5749 5744 5739 5734 5729 5724 5719